Wind_Speed
8 8 7 7 8 8 8 8 8 8 8 8 8 8 9 9 9 8 9 9 9 8 7 7 6 6 6 5 4 4 4 3 2 2 1 1 1 1 1 1 1 1 1
8 7 7 7 7 7 7 8 7 8 8 8 8 8 9 8 8 8 8 8 7 7 6 6 6 5 5 4 4 4 3 2 2 1 1 2 1 0 1 1 1 1 1
7 6 6 6 6 6 7 7 7 7 8 8 8 8 8 8 7 7 7 6 6 6 6 5 5 4 4 4 3 3 3 2 1 1 1 1 1 1 1 2 2 2 2
7 7 6 6 6 7 7 7 7 7 7 7 7 7 7 7 6 6 5 5 5 5 5 5 4 4 4 3 4 4 3 2 1 1 1 1 1 2 2 2 2 2 2
9 8 7 7 7 7 7 8 7 7 7 7 6 6 6 6 6 5 5 5 5 5 5 5 4 4 3 3 3 4 4 2 1 1 1 2 2 2 2 2 2 2 2
9 9 9 8 7 7 7 7 7 7 7 6 6 5 5 5 5 5 5 4 4 4 4 4 4 3 3 3 3 3 3 3 2 1 1 2 2 2 2 2 2 3 2
9 9 8 7 7 6 6 6 6 6 6 5 5 4 4 4 4 4 3 3 3 3 3 3 3 4 3 3 2 3 2 2 2 2 2 2 2 2 2 2 2 2 3
8 8 8 6 6 5 5 5 5 5 5 5 5 4 4 3 3 2 2 3 2 2 2 3 4 4 4 3 3 3 2 2 2 2 2 2 2 2 2 2 3 3 3
7 7 6 5 5 4 4 4 4 4 4 4 3 3 3 2 2 1 2 2 1 2 2 3 4 5 4 4 4 4 4 3 3 3 3 3 3 3 3 3 3 3 2
7 6 5 5 5 4 4 3 3 3 3 3 2 2 2 2 1 1 1 2 3 3 3 3 4 5 5 4 5 6 6 6 5 4 3 3 3 3 3 3 3 3 3
6 6 6 5 5 4 4 3 3 3 3 3 2 2 1 0 1 1 2 2 3 3 4 4 5 5 6 6 6 6 6 6 6 6 5 5 4 4 4 3 3 3 3
6 6 5 5 5 4 3 3 3 3 3 3 2 2 2 2 2 3 3 4 4 4 4 4 5 6 7 7 6 6 7 7 7 8 7 6 6 6 5 4 4 4 4
6 6 5 5 5 5 4 3 2 3 3 3 2 2 3 3 3 4 4 5 4 4 4 4 5 5 6 7 7 7 7 8 8 9 8 7 7 7 7 6 6 5 5
5 5 5 5 5 5 5 3 2 3 3 3 2 2 3 4 4 4 4 4 5 4 4 5 5 6 6 6 6 6 7 7 8 8 8 9 8 8 7 8 7 7 6
6 5 5 4 5 5 5 5 3 3 3 3 2 3 3 4 3 3 4 4 4 5 5 5 5 5 6 7 7 7 7 8 9 8 9 9 9 8 8 9 8 8 8
6 6 4 4 4 5 6 6 5 4 4 4 4 4 4 4 4 3 4 4 4 4 5 5 5 5 6 7 8 8 9 9 9 9 9 9 9 9 9 9 9 10 10
6 6 6 5 5 5 6 6 6 5 5 6 6 6 5 5 4 4 4 5 5 4 5 6 7 7 7 8 9 10 10 10 10 10 10 10 10 10 10 10 10 11 11
6 6 6 6 6 6 6 6 6 5 5 6 6 6 6 6 6 5 5 6 6 5 6 6 8 8 8 9 10 11 11 11 11 11 10 10 10 10 10 10 11 12 13
6 6 6 6 6 6 6 6 6 6 6 6 6 6 7 7 7 6 5 5 5 6 7 8 8 9 9 10 11 11 11 11 11 11 11 11 11 11 11 11 12 12 13
5 5 6 6 6 7 7 7 6 6 6 6 7 7 7 7 7 7 7 6 6 6 7 8 9 9 9 10 11 12 12 12 12 13 13 12 13 13 13 13 13 13 14
5 5 6 6 6 6 7 7 7 6 6 7 7 8 8 8 8 8 8 8 7 7 8 9 9 9 9 10 11 13 13 13 13 13 14 14 14 15 15 15 15 15 16
6 6 6 7 7 7 7 7 7 7 7 8 8 9 9 9 9 9 9 9 8 9 10 10 10 9 9 10 11 12 13 13 13 14 14 15 15 16 16 17 17 17 18
7 7 7 7 7 7 7 7 7 8 8 9 10 10 10 10 10 10 9 9 9 10 11 11 10 9 9 10 11 11 12 12 13 14 15 16 16 17 17 18 18 19 20
7 7 8 7 7 7 7 8 8 9 9 10 10 11 10 10 10 11 11 10 11 11 11 11 11 11 10 11 12 12 12 12 13 14 15 16 17 17 18 18 19 20 20
8 9 9 9 9 9 9 8 9 10 10 11 12 12 12 12 12 12 12 12 13 13 13 13 13 13 13 13 13 13 13 13 14 15 16 17 18 18 19 19 19 20 20
10 10 10 10 10 10 10 10 11 11 12 12 12 13 14 14 13 13 13 14 14 14 14 14 15 15 15 15 15 15 15 16 16 16 17 17 18 18 19 19 19 19 20
Wind_Direction
91 93 93 98 102 108 107 108 112 111 115 117 112 108 115 121 125 127 131 128 125 125 128 136 143 151 150 144 146 150 157 154 154 152 156 175 192 194 197 191 194 211 244
91 97 96 98 104 103 102 104 109 113 114 116 113 109 113 116 119 121 126 127 128 131 135 138 137 143 151 155 153 152 159 159 166 166 190 205 199 203 221 218 212 208 230
87 99 100 102 107 106 106 106 108 115 116 116 116 113 114 118 119 118 124 129 132 128 134 140 140 141 147 157 162 160 162 172 184 191 230 239 222 234 255 251 257 237 225
81 93 101 109 108 109 107 106 109 117 118 116 116 114 114 119 119 119 121 133 141 137 134 138 143 147 151 159 168 169 168 178 174 243 255 262 261 276 287 269 253 244 234
78 88 93 101 108 107 106 105 107 112 115 118 116 113 110 116 121 123 123 131 143 148 143 140 145 153 162 163 169 178 184 191 179 234 266 262 267 275 281 269 253 253 255
79 84 88 95 102 103 104 104 104 105 110 115 116 116 113 118 121 131 130 137 152 156 155 156 154 159 159 163 173 184 189 197 187 197 237 266 263 266 275 275 251 249 244
80 81 85 93 99 103 103 102 102 105 107 109 112 119 122 126 127 132 144 148 154 175 174 180 183 185 182 172 176 195 201 188 195 213 242 271 269 275 272 268 254 253 243
77 77 79 86 96 103 98 96 102 102 101 103 107 119 122 126 137 153 168 168 170 174 200 214 212 213 215 210 213 210 210 199 220 236 247 260 265 268 268 260 255 262 260
79 74 72 80 87 101 97 97 106 91 90 99 102 117 130 136 143 184 206 208 208 201 203 215 225 220 216 219 221 217 224 230 236 242 246 261 266 278 281 268 272 271 262
68 63 59 69 76 94 96 92 87 81 78 75 76 96 119 138 149 182 215 228 244 237 220 223 230 228 225 227 225 227 231 240 240 244 247 251 261 272 278 272 264 261 265
60 55 50 55 56 79 92 88 83 73 60 52 50 38 20 329 281 250 242 246 254 248 239 238 234 232 232 237 239 241 240 240 244 250 254 257 260 266 274 280 278 267 269
57 51 45 46 46 46 57 61 66 63 48 34 27 9 346 331 310 288 272 270 267 255 244 244 243 241 238 236 235 245 248 244 249 253 257 260 259 261 266 275 277 268 267
55 50 44 47 44 38 33 28 44 41 32 23 0 344 334 314 304 300 290 282 275 271 257 259 255 246 240 240 242 248 251 247 249 252 253 256 256 258 263 271 273 268 280
47 48 47 48 41 34 27 18 26 24 9 359 347 330 319 309 299 302 302 293 285 275 270 269 264 257 252 246 243 248 250 255 256 260 258 256 257 258 262 269 275 270 273
45 47 50 45 38 34 28 23 25 31 17 10 2 343 330 314 301 300 303 299 289 274 273 271 276 279 264 261 256 253 254 258 260 263 263 260 257 258 261 266 270 273 276
46 45 46 43 40 37 23 20 27 28 18 18 9 354 340 325 304 296 296 292 286 284 284 283 282 284 271 271 265 258 256 254 254 257 258 257 259 261 267 268 271 272 276
46 46 48 46 43 35 25 19 18 18 17 12 6 3 352 342 321 301 286 286 282 280 282 288 286 282 277 276 267 263 261 260 253 251 254 257 260 263 270 272 274 271 273
50 50 46 42 40 36 30 23 24 19 10 10 11 5 1 354 350 341 316 299 293 289 286 288 286 283 279 275 270 263 260 260 259 255 258 259 261 265 271 273 276 275 271
48 46 41 39 34 30 30 24 22 22 15 9 9 7 1 358 357 353 339 328 318 303 297 299 298 290 281 276 272 266 260 261 262 261 262 261 261 264 269 272 276 277 274
39 36 32 31 27 24 25 21 19 17 12 6 4 3 357 360 356 350 348 341 326 316 314 312 305 295 285 278 273 269 265 262 263 263 263 263 263 263 265 268 271 272 272
13 11 12 14 15 13 14 15 14 10 4 357 357 357 356 355 353 349 344 343 337 329 322 319 313 303 297 289 281 275 275 273 267 265 263 264 265 264 266 268 272 272 272
354 355 356 357 359 357 358 1 360 0 356 350 350 350 350 348 346 343 342 339 334 333 329 321 319 313 306 297 293 287 283 280 272 270 270 269 270 269 267 269 271 272 273
342 340 337 338 340 340 341 344 347 347 344 343 342 338 338 339 343 342 338 335 331 331 327 322 319 315 310 302 297 293 287 281 275 276 276 273 272 270 270 271 271 272 273
326 327 324 320 321 324 326 329 332 332 333 334 332 333 331 330 330 331 330 328 327 326 325 324 318 312 310 307 303 298 293 286 279 278 278 277 276 275 273 272 270 271 271
310 311 313 313 314 316 316 318 321 322 325 328 327 326 325 323 321 323 323 322 322 323 322 323 317 312 307 304 302 301 299 293 286 281 279 279 278 277 276 274 272 271 270
302 301 303 306 309 312 311 307 308 309 311 314 316 316 315 315 312 314 315 315 316 317 316 315 313 310 305 302 297 296 296 297 293 286 281 278 279 279 278 279 276 274 274
Height
5896 5895 5895 5894 5894 5894 5894 5894 5894 5893 5893 5893 5893 5893 5893 5893 5893 5894 5894 5894 5895 5895 5896 5897 5898 5898 5899 5900 5900 5901 5901 5901 5902 5902 5902 5902 5902 5901 5901 5901 5901 5901 5901
5897 5896 5896 5895 5895 5895 5895 5895 5894 5894 5894 5894 5894 5894 5894 5894 5894 5894 5895 5895 5896 5896 5897 5897 5898 5899 5900 5900 5901 5901 5901 5901 5902 5902 5902 5902 5901 5901 5902 5901 5901 5901 5901
5897 5896 5896 5896 5896 5896 5896 5896 5895 5895 5895 5895 5894 5895 5895 5895 5895 5895 5895 5896 5896 5897 5897 5898 5899 5899 5900 5901 5901 5901 5901 5902 5902 5902 5902 5901 5901 5901 5902 5901 5901 5901 5901
5897 5896 5896 5897 5897 5897 5897 5897 5896 5896 5896 5895 5895 5895 5895 5895 5895 5896 5896 5896 5896 5897 5898 5898 5899 5900 5900 5901 5901 5901 5901 5902 5902 5902 5902 5901 5901 5901 5901 5901 5901 5901 5901
5898 5897 5898 5898 5898 5898 5898 5898 5897 5897 5897 5896 5896 5896 5896 5896 5896 5896 5896 5896 5897 5897 5898 5898 5899 5900 5900 5900 5901 5901 5901 5901 5901 5902 5901 5901 5901 5901 5901 5901 5901 5901 5901
5900 5900 5899 5900 5899 5899 5899 5898 5898 5898 5897 5897 5897 5897 5897 5897 5897 5896 5896 5897 5897 5897 5898 5898 5899 5899 5900 5900 5900 5901 5900 5901 5901 5901 5901 5901 5901 5901 5901 5901 5901 5901 5901
5903 5902 5901 5901 5901 5901 5900 5900 5899 5899 5898 5898 5898 5897 5897 5897 5897 5897 5897 5897 5897 5897 5897 5898 5898 5899 5899 5899 5900 5900 5900 5901 5901 5901 5901 5901 5901 5901 5901 5900 5900 5900 5900
5904 5904 5903 5903 5902 5902 5901 5901 5900 5900 5899 5899 5898 5898 5898 5898 5898 5898 5897 5897 5897 5897 5897 5898 5898 5898 5899 5899 5899 5900 5900 5900 5901 5901 5901 5901 5900 5900 5900 5900 5900 5900 5900
5906 5905 5905 5904 5903 5903 5902 5902 5901 5900 5900 5899 5899 5899 5898 5898 5898 5898 5897 5897 5897 5897 5897 5897 5897 5897 5898 5898 5899 5899 5900 5900 5901 5901 5901 5901 5901 5900 5900 5900 5900 5900 5900
5907 5907 5906 5905 5904 5903 5903 5902 5902 5901 5901 5900 5899 5899 5899 5898 5898 5898 5898 5897 5897 5897 5897 5897 5897 5897 5897 5897 5898 5899 5899 5899 5900 5900 5900 5900 5900 5900 5900 5900 5899 5899 5899
5909 5908 5907 5906 5905 5904 5903 5902 5902 5901 5901 5900 5900 5899 5899 5899 5898 5898 5897 5897 5897 5896 5896 5896 5896 5896 5896 5897 5897 5898 5898 5898 5899 5899 5899 5899 5899 5900 5899 5899 5899 5898 5898
5910 5909 5908 5907 5906 5905 5904 5903 5902 5901 5901 5900 5900 5899 5899 5898 5898 5897 5897 5896 5896 5895 5895 5895 5895 5895 5895 5896 5896 5896 5897 5897 5897 5898 5898 5898 5898 5899 5898 5898 5898 5898 5897
5911 5910 5909 5908 5906 5905 5904 5903 5902 5902 5901 5900 5900 5899 5899 5898 5897 5897 5897 5896 5895 5895 5894 5894 5894 5894 5894 5895 5895 5895 5896 5896 5896 5896 5897 5897 5897 5897 5897 5897 5897 5897 5896
5911 5910 5910 5909 5907 5906 5905 5904 5903 5902 5901 5900 5899 5899 5898 5898 5897 5897 5896 5896 5895 5894 5894 5893 5893 5893 5894 5894 5894 5894 5895 5895 5895 5895 5895 5896 5896 5896 5896 5896 5896 5896 5896
5912 5911 5910 5909 5908 5907 5906 5905 5903 5903 5902 5900 5899 5899 5898 5897 5897 5896 5895 5895 5894 5894 5894 5893 5893 5893 5893 5893 5893 5893 5893 5893 5894 5894 5894 5894 5894 5894 5894 5894 5894 5894 5894
5912 5911 5911 5910 5909 5908 5907 5906 5904 5903 5902 5901 5900 5899 5898 5897 5896 5896 5895 5894 5894 5893 5892 5892 5892 5892 5892 5892 5891 5891 5892 5891 5891 5892 5892 5892 5892 5893 5893 5893 5893 5892 5892
5913 5912 5911 5910 5909 5908 5907 5906 5905 5903 5902 5901 5900 5899 5898 5897 5895 5894 5894 5893 5892 5892 5891 5891 5891 5890 5890 5890 5890 5890 5889 5889 5889 5889 5890 5890 5890 5891 5891 5891 5891 5890 5890
5914 5913 5912 5911 5910 5909 5908 5906 5905 5904 5903 5902 5901 5899 5898 5896 5895 5894 5893 5892 5891 5890 5890 5889 5889 5889 5888 5888 5887 5887 5887 5887 5887 5887 5888 5888 5888 5888 5888 5888 5888 5888 5888
5915 5914 5913 5912 5910 5909 5908 5907 5906 5905 5904 5902 5901 5899 5898 5896 5895 5893 5892 5891 5890 5889 5888 5888 5887 5886 5886 5886 5885 5885 5885 5885 5884 5885 5885 5885 5885 5885 5886 5885 5885 5885 5885
5916 5915 5913 5912 5911 5909 5908 5907 5906 5905 5904 5902 5901 5899 5898 5896 5895 5893 5892 5891 5889 5888 5887 5886 5885 5883 5883 5882 5882 5882 5882 5882 5882 5882 5882 5883 5883 5882 5882 5882 5882 5882 5882
5916 5915 5914 5912 5911 5910 5909 5907 5906 5905 5904 5902 5901 5899 5898 5896 5895 5893 5892 5890 5889 5887 5886 5884 5883 5881 5881 5880 5880 5879 5879 5879 5879 5879 5879 5879 5879 5879 5879 5879 5879 5878 5878
5916 5915 5914 5912 5911 5910 5909 5907 5906 5905 5903 5902 5900 5899 5897 5896 5894 5893 5891 5889 5888 5886 5884 5883 5881 5879 5878 5878 5877 5877 5876 5877 5876 5876 5875 5875 5876 5875 5875 5875 5875 5875 5874
5916 5914 5913 5912 5911 5909 5908 5907 5906 5905 5903 5901 5900 5898 5896 5895 5893 5892 5890 5888 5887 5885 5883 5881 5879 5878 5877 5876 5874 5874 5874 5873 5873 5873 5872 5872 5872 5872 5872 5871 5871 5871 5870
5915 5914 5912 5911 5910 5909 5907 5906 5905 5904 5902 5900 5898 5897 5895 5894 5892 5890 5889 5887 5885 5883 5882 5880 5878 5876 5875 5873 5872 5871 5871 5870 5870 5869 5868 5868 5867 5867 5867 5866 5866 5866 5865
5914 5913 5911 5910 5909 5907 5906 5905 5904 5902 5901 5899 5897 5895 5894 5892 5890 5889 5887 5885 5883 5881 5879 5878 5876 5874 5873 5871 5870 5869 5868 5867 5866 5865 5865 5864 5863 5862 5862 5861 5861 5860 5860
5912 5911 5910 5909 5907 5906 5904 5903 5902 5900 5898 5897 5895 5893 5892 5890 5888 5887 5885 5883 5881 5879 5877 5876 5874 5872 5870 5869 5867 5866 5865 5864 5862 5862 5861 5859 5859 5858 5857 5856 5856 5855 5854